PIMOHWEATHER Station Historical Data
Daily Summary for July 24, 2020 Units:  Metric    English   Both
Daily Weekly Monthly Yearly
  High: Low: Average:
Temperature: 29.0 °C 29.0 °C 29 °C
Dew Point: 26.0 °C 25.0 °C 25.6 °C
Humidity: 85% 78% 81%
Wind Speed: 9km/h 0km/h 3.7km/h
Wind Gust: 12km/h - -
Wind- - East
Pressure: 1014.1 hPa 1013.2 hPa -
Precipitation: 3.30 mm    
 
 
Tabular Data for July 24, 2020
Time Temperature Dew Point Pressure Wind Wind Speed Wind Gust Humidity Rainfall Rate (Hourly) solar
21:29 29.0 °C 25.0 °C 1013.2 hPa East 2 km/h 8 km/h 78% 0.00 mm 0.00 W/m2
21:34 29.0 °C 25.0 °C 1013.6 hPa East 5 km/h 8 km/h 78% 0.00 mm 0.00 W/m2
21:39 29.0 °C 25.0 °C 1013.6 hPa East 5 km/h 8 km/h 78% 0.00 mm 0.00 W/m2
21:44 29.0 °C 25.0 °C 1013.6 hPa East 3 km/h 4 km/h 79% 0.00 mm 0.00 W/m2
21:49 29.0 °C 25.0 °C 1013.9 hPa East 4 km/h 4 km/h 78% 0.00 mm 0.00 W/m2
21:54 29.0 °C 25.0 °C 1013.9 hPa East 6 km/h 8 km/h 79% 0.00 mm 0.00 W/m2
21:59 29.0 °C 25.0 °C 1013.9 hPa East 9 km/h 12 km/h 79% 0.00 mm 0.00 W/m2
22:04 29.0 °C 25.0 °C 1013.9 hPa East 4 km/h 4 km/h 79% 0.00 mm 0.00 W/m2
22:09 29.0 °C 25.0 °C 1013.8 hPa East 5 km/h 8 km/h 79% 0.00 mm 0.00 W/m2
22:14 29.0 °C 25.0 °C 1013.9 hPa East 5 km/h 8 km/h 79% 0.00 mm 0.00 W/m2
22:19 29.0 °C 25.0 °C 1014.0 hPa East 4 km/h 4 km/h 78% 0.00 mm 0.00 W/m2
22:24 29.0 °C 25.0 °C 1014.0 hPa East 1 km/h 4 km/h 78% 0.00 mm 0.00 W/m2
22:29 29.0 °C 25.0 °C 1014.0 hPa East 1 km/h 4 km/h 79% 0.00 mm 0.00 W/m2
22:34 29.0 °C 26.0 °C 1014.0 hPa East 1 km/h 4 km/h 80% 0.00 mm 0.00 W/m2
22:39 29.0 °C 26.0 °C 1014.0 hPa East 4 km/h 4 km/h 81% 0.00 mm 0.00 W/m2
22:44 29.0 °C 26.0 °C 1013.8 hPa East 5 km/h 8 km/h 81% 0.00 mm 0.00 W/m2
22:49 29.0 °C 26.0 °C 1014.1 hPa East 4 km/h 8 km/h 82% 0.00 mm 0.00 W/m2
22:54 29.0 °C 26.0 °C 1014.1 hPa East 5 km/h 8 km/h 82% 0.00 mm 0.00 W/m2
22:59 29.0 °C 26.0 °C 1013.8 hPa East 4 km/h 4 km/h 83% 0.00 mm 0.00 W/m2
23:04 29.0 °C 26.0 °C 1013.7 hPa East 5 km/h 8 km/h 84% 0.00 mm 0.00 W/m2
23:09 29.0 °C 26.0 °C 1013.8 hPa East 5 km/h 8 km/h 84% 0.00 mm 0.00 W/m2
23:14 29.0 °C 26.0 °C 1013.8 hPa East 3 km/h 4 km/h 85% 0.00 mm 0.00 W/m2
23:19 29.0 °C 26.0 °C 1013.9 hPa East 1 km/h 4 km/h 85% 0.00 mm 0.00 W/m2
23:24 29.0 °C 26.0 °C 1013.9 hPa East 4 km/h 4 km/h 84% 0.00 mm 0.00 W/m2
23:29 29.0 °C 26.0 °C 1013.7 hPa East 6 km/h 8 km/h 84% 0.00 mm 0.00 W/m2
23:34 29.0 °C 26.0 °C 1013.6 hPa East 4 km/h 4 km/h 84% 0.00 mm 0.00 W/m2
23:39 29.0 °C 26.0 °C 1013.8 hPa East 4 km/h 8 km/h 84% 0.00 mm 0.00 W/m2
23:44 29.0 °C 26.0 °C 1013.7 hPa East 4 km/h 4 km/h 85% 0.00 mm 0.00 W/m2
23:49 29.0 °C 26.0 °C 1013.9 hPa East 1 km/h 4 km/h 85% 0.00 mm 0.00 W/m2
23:54 29.0 °C 26.0 °C 1014.1 hPa East 1 km/h 4 km/h 85% 0.00 mm 0.00 W/m2
23:59 29.0 °C 26.0 °C 1014.1 hPa Calm   4 km/h 85% 0.00 mm 0.00 W/m2
PIMOHWEATHER Philippines
Compliments of Weather Underground - 2 mb